• In Germany
  • List of Countries
  • For 7 days
  • Water Temperature
  • Satellite Maps
  • Weather Map
  • Weather Widgets
  • user-avatar
    Login

    Hourly Weather Durres

    Today, 16 November, Friday

    Time Temperature Precipitation Wind Pressure Humidity
    00:00 +10°C° 0 mm 6 mps 764 mmHg 54%
    01:00 +9°C° 0 mm 6 mps 764 mmHg 56%
    02:00 +9°C° 0 mm 6 mps 764 mmHg 58%
    03:00 +9°C° 0 mm 6 mps 764 mmHg 59%
    04:00 +8°C° 0 mm 6 mps 764 mmHg 61%
    05:00 +8°C° 0 mm 7 mps 764 mmHg 61%
    06:00 +8°C° 0 mm 7 mps 764 mmHg 61%
    07:00 +8°C° 0 mm 7 mps 764 mmHg 61%
    08:00 +10°C° 0 mm 6 mps 764 mmHg 55%
    09:00 +13°C° 0 mm 6 mps 764 mmHg 48%
    10:00 +15°C° 0 mm 6 mps 764 mmHg 41%
    11:00 +15°C° 0 mm 6 mps 764 mmHg 39%
    12:00 +16°C° 0 mm 5 mps 763 mmHg 37%
    13:00 +17°C° 0 mm 4 mps 763 mmHg 35%
    14:00 +15°C° 0.2 mm 5 mps 763 mmHg 38%
    15:00 +14°C° 0.2 mm 5 mps 763 mmHg 42%
    16:00 +13°C° 0.2 mm 5 mps 763 mmHg 45%
    17:00 +13°C° 0.4 mm 5 mps 763 mmHg 46%
    18:00 +12°C° 0.4 mm 5 mps 764 mmHg 47%
    19:00 +12°C° 0.4 mm 5 mps 764 mmHg 49%
    20:00 +10°C° 0.1 mm 5 mps 764 mmHg 50%
    21:00 +10°C° 0.1 mm 6 mps 764 mmHg 51%
    22:00 +10°C° 0.1 mm 7 mps 764 mmHg 52%
    23:00 +10°C° 0.1 mm 7 mps 764 mmHg 53%

    Tomorrow, 17 November, Saturday

    Time Temperature Precipitation Wind Pressure Humidity
    00:00 +10°C° 0.1 mm 7 mps 764 mmHg 54%
    01:00 +9°C° 0.1 mm 7 mps 763 mmHg 55%
    02:00 +9°C° 0.4 mm 7 mps 763 mmHg 57%
    03:00 +9°C° 0.4 mm 6 mps 763 mmHg 59%
    04:00 +9°C° 0.4 mm 6 mps 763 mmHg 61%
    05:00 +9°C° 0.3 mm 6 mps 763 mmHg 63%
    06:00 +8°C° 0.3 mm 6 mps 763 mmHg 64%
    07:00 +8°C° 0.3 mm 6 mps 763 mmHg 65%
    08:00 +9°C° 0.2 mm 6 mps 763 mmHg 61%
    09:00 +10°C° 0.2 mm 6 mps 763 mmHg 57%
    10:00 +11°C° 0.2 mm 6 mps 763 mmHg 52%
    11:00 +13°C° 0.1 mm 6 mps 763 mmHg 50%
    12:00 +13°C° 0.1 mm 6 mps 763 mmHg 48%
    13:00 +14°C° 0.1 mm 6 mps 762 mmHg 45%
    14:00 +13°C° 0.1 mm 6 mps 762 mmHg 48%
    15:00 +11°C° 0.1 mm 6 mps 762 mmHg 51%
    16:00 +10°C° 0.1 mm 6 mps 762 mmHg 54%
    17:00 +10°C° 0.1 mm 6 mps 762 mmHg 57%
    18:00 +9°C° 0.1 mm 6 mps 762 mmHg 60%
    19:00 +8°C° 0.1 mm 6 mps 762 mmHg 63%
    20:00 +8°C° 0 mm 6 mps 763 mmHg 63%
    21:00 +8°C° 0 mm 6 mps 763 mmHg 63%
    22:00 +8°C° 0 mm 6 mps 763 mmHg 63%
    23:00 +7°C° 0 mm 6 mps 763 mmHg 63%

    Day after tomorrow, 18 November, Sunday

    Time Temperature Precipitation Wind Pressure Humidity
    00:00 +7°C° 0 mm 6 mps 763 mmHg 63%
    01:00 +7°C° 0 mm 6 mps 762 mmHg 64%
    02:00 +7°C° 0 mm 6 mps 762 mmHg 63%
    03:00 +8°C° 0 mm 6 mps 762 mmHg 62%
    04:00 +8°C° 0 mm 5 mps 762 mmHg 61%
    05:00 +8°C° 0.1 mm 5 mps 762 mmHg 61%
    06:00 +8°C° 0.1 mm 5 mps 762 mmHg 61%
    07:00 +8°C° 0.1 mm 5 mps 762 mmHg 61%
    08:00 +9°C° 0.1 mm 5 mps 762 mmHg 59%
    09:00 +10°C° 0.1 mm 5 mps 762 mmHg 56%
    10:00 +12°C° 0.1 mm 5 mps 762 mmHg 54%
    11:00 +13°C° 0 mm 5 mps 761 mmHg 53%
    12:00 +13°C° 0 mm 5 mps 761 mmHg 52%
    13:00 +14°C° 0 mm 4 mps 760 mmHg 51%
    14:00 +13°C° 0 mm 4 mps 760 mmHg 54%
    15:00 +13°C° 0 mm 3 mps 760 mmHg 58%
    16:00 +12°C° 0 mm 3 mps 759 mmHg 61%
    17:00 +11°C° 0 mm 3 mps 759 mmHg 63%
    18:00 +11°C° 0 mm 3 mps 759 mmHg 64%
    19:00 +10°C° 0 mm 3 mps 759 mmHg 66%
    20:00 +10°C° 0 mm 3 mps 759 mmHg 67%
    21:00 +10°C° 0 mm 3 mps 758 mmHg 68%
    22:00 +10°C° 0 mm 3 mps 758 mmHg 69%
    23:00 +9°C° 0 mm 3 mps 758 mmHg 69%

    19 November, Monday

    Time Temperature Precipitation Wind Pressure Humidity
    00:00 +9°C° 0 mm 3 mps 758 mmHg 70%
    01:00 +9°C° 0 mm 3 mps 758 mmHg 70%
    02:00 +9°C° 0 mm 3 mps 757 mmHg 71%
    03:00 +9°C° 0 mm 3 mps 757 mmHg 71%
    04:00 +9°C° 0 mm 3 mps 757 mmHg 72%
    05:00 +9°C° 0 mm 2 mps 757 mmHg 72%
    06:00 +9°C° 0 mm 2 mps 757 mmHg 72%
    07:00 +9°C° 0 mm 2 mps 757 mmHg 72%
    08:00 +10°C° 0 mm 2 mps 757 mmHg 66%
    09:00 +13°C° 0 mm 2 mps 757 mmHg 61%
    10:00 +14°C° 0 mm 2 mps 757 mmHg 55%
    11:00 +15°C° 0 mm 2 mps 756 mmHg 55%
    12:00 +15°C° 0 mm 2 mps 756 mmHg 55%
    13:00 +15°C° 0 mm 2 mps 756 mmHg 55%
    14:00 +14°C° 0.3 mm 2 mps 756 mmHg 59%
    15:00 +13°C° 0.3 mm 3 mps 756 mmHg 63%
    16:00 +12°C° 0.3 mm 3 mps 756 mmHg 68%
    17:00 +12°C° 0.8 mm 3 mps 756 mmHg 70%
    18:00 +11°C° 0.8 mm 4 mps 756 mmHg 72%
    19:00 +11°C° 0.8 mm 4 mps 756 mmHg 74%
    20:00 +11°C° 1.3 mm 4 mps 756 mmHg 77%
    21:00 +10°C° 1.3 mm 5 mps 756 mmHg 79%
    22:00 +10°C° 1.3 mm 5 mps 756 mmHg 81%
    23:00 +10°C° 1.8 mm 5 mps 755 mmHg 81%

    20 November, Tuesday

    Time Temperature Precipitation Wind Pressure Humidity
    00:00 +10°C° 1.8 mm 5 mps 755 mmHg 82%
    01:00 +10°C° 1.8 mm 6 mps 754 mmHg 83%
    02:00 +10°C° 2.7 mm 6 mps 754 mmHg 84%
    03:00 +10°C° 2.7 mm 6 mps 753 mmHg 84%
    04:00 +11°C° 2.7 mm 6 mps 753 mmHg 85%
    05:00 +11°C° 1.9 mm 7 mps 752 mmHg 83%
    06:00 +11°C° 1.9 mm 7 mps 752 mmHg 82%
    07:00 +11°C° 1.9 mm 8 mps 751 mmHg 81%
    08:00 +11°C° 3.1 mm 9 mps 751 mmHg 81%
    09:00 +12°C° 3.1 mm 9 mps 751 mmHg 82%
    10:00 +12°C° 3.1 mm 10 mps 750 mmHg 82%
    11:00 +12°C° 2.5 mm 11 mps 750 mmHg 82%
    12:00 +13°C° 2.5 mm 11 mps 749 mmHg 81%
    13:00 +13°C° 2.5 mm 11 mps 749 mmHg 81%
    14:00 +13°C° 3 mm 11 mps 748 mmHg 82%
    15:00 +13°C° 3 mm 12 mps 748 mmHg 84%
    16:00 +14°C° 3 mm 12 mps 747 mmHg 85%
    17:00 +13°C° 1.9 mm 11 mps 747 mmHg 86%
    18:00 +13°C° 1.9 mm 11 mps 748 mmHg 86%
    19:00 +13°C° 1.9 mm 10 mps 748 mmHg 87%
    20:00 +13°C° 1.2 mm 10 mps 748 mmHg 87%
    21:00 +13°C° 1.2 mm 10 mps 748 mmHg 88%
    22:00 +14°C° 1.2 mm 10 mps 748 mmHg 88%
    23:00 +13°C° 1.2 mm 10 mps 748 mmHg 88%

    21 November, Wednesday

    Time Temperature Precipitation Wind Pressure Humidity
    00:00 +13°C° 1.2 mm 10 mps 748 mmHg 88%
    01:00 +13°C° 1.2 mm 10 mps 748 mmHg 87%
    02:00 +13°C° 2.5 mm 10 mps 748 mmHg 89%
    03:00 +13°C° 2.5 mm 9 mps 748 mmHg 90%
    04:00 +13°C° 2.5 mm 8 mps 749 mmHg 91%
    05:00 +13°C° 2.3 mm 8 mps 749 mmHg 92%
    06:00 +13°C° 2.3 mm 9 mps 750 mmHg 92%
    07:00 +13°C° 2.3 mm 9 mps 750 mmHg 93%
    08:00 +13°C° 0.3 mm 8 mps 751 mmHg 87%
    09:00 +14°C° 0.3 mm 7 mps 752 mmHg 81%
    10:00 +15°C° 0.3 mm 6 mps 753 mmHg 76%
    11:00 +15°C° 0 mm 5 mps 753 mmHg 72%
    12:00 +15°C° 0 mm 4 mps 753 mmHg 68%
    13:00 +17°C° 0 mm 3 mps 753 mmHg 64%
    14:00 +16°C° 0.1 mm 3 mps 754 mmHg 69%
    15:00 +15°C° 0.1 mm 2 mps 754 mmHg 73%
    16:00 +14°C° 0.1 mm 2 mps 755 mmHg 77%
    17:00 +14°C° 0.1 mm 2 mps 756 mmHg 79%
    18:00 +14°C° 0.1 mm 1 mps 756 mmHg 81%
    19:00 +13°C° 0.1 mm 1 mps 757 mmHg 83%
    20:00 +13°C° 0.1 mm 2 mps 757 mmHg 82%
    21:00 +13°C° 0.1 mm 2 mps 758 mmHg 81%
    22:00 +11°C° 0.1 mm 3 mps 758 mmHg 79%
    23:00 +11°C° 0.1 mm 3 mps 758 mmHg 78%
    Show more